Flag for Poland Weather past 2 weeks in Wroclaw, Poland

Now
59 °F

Clear.


Feels Like: 59 °F
Forecast: 53 / 67 °F
Wind: 5 mph from Northwest

Location: Wroclaw Ii

Current Time: May 25, 2015 at 11:56:45 PM

Latest Report: May 25, 2015 at 11:00 PM


Visibility: 10 mi

Pressure: 29.86 "Hg

Humidity: 82%

Dew point: 54 °F

Location of WroclawLocation

Historic Weather in Wroclaw — Graph

°F

Wroclaw temperature yesterday

Maximum temperature yesterday: 66 °F (at 1:30 PM)
Minimum temperature yesterday: 50 °F (at 2:30 AM)
Average temperature yesterday: 59 °F

Past Weeks' High & Low Weather Summary

 TemperatureHumidityPressure
High77 °F (May 12, 1:00 PM)100% (May 25, 3:00 AM)30.42 "Hg (May 25, 3:00 AM)
Low39 °F (May 15, 3:00 AM)28% (May 12, 1:00 PM)29.68 "Hg (May 19, 4:00 AM)
Average58 °F66%30.06 "Hg
* Reported May 10 10:00 PM — May 25 10:30 PM, Wroclaw, Weather by CustomWeather, © 2015

Note: Actual official high and low records may vary slightly from our data, if they occured in-between our weather recording intervals... More about our weather records

Advertising

Wroclaw weather history for previous 24 hours

 ConditionsComfort  
Time TempWeatherWind HumidityBarometerVisibility
10:30 PM
Mon, May 25
59 °FClear.2 mph82%29.86 "Hg10 mi
10:00 PM59 °FClear.3 mph82%29.86 "Hg10 mi
9:30 PM61 °FSunny.5 mph83%29.86 "Hg10 mi
9:00 PM61 °FSunny.3 mph83%29.86 "Hg10 mi
8:30 PM63 °FSunny.3 mph73%29.86 "Hg10 mi
8:00 PM63 °FSunny.7 mph73%29.86 "Hg10 mi
7:30 PM64 °FSunny.9 mph68%29.86 "Hg10 mi
7:00 PM68 °FSunny.13 mph64%29.86 "Hg10 mi
6:30 PM70 °FSunny.6 mph57%29.86 "Hg10 mi
6:00 PM73 °FSunny.6 mph38%29.86 "Hg10 mi
5:30 PM73 °FSunny.3 mph38%29.86 "Hg10 mi
5:00 PM73 °FPassing clouds.3 mph41%29.86 "HgN/A
4:30 PM73 °FPassing clouds.6 mph38%29.86 "HgN/A
4:00 PM73 °FPassing clouds.6 mph41%29.86 "HgN/A
3:30 PM73 °FPassing clouds.3 mph38%29.89 "HgN/A
3:00 PM72 °FPassing clouds.3 mph44%29.89 "HgN/A
2:30 PM72 °FPassing clouds.5 mph44%29.89 "HgN/A
2:00 PM72 °FPassing clouds.5 mph47%29.92 "HgN/A
1:30 PM72 °FPassing clouds.2 mph53%29.92 "HgN/A
1:00 PM70 °FPassing clouds.5 mph50%29.95 "HgN/A
12:30 PM70 °FPassing clouds.5 mph50%29.95 "HgN/A
12:00 PM68 °FPassing clouds.6 mph56%29.95 "HgN/A
11:30 AM68 °FPassing clouds.6 mph60%29.95 "HgN/A
11:00 AM68 °FPassing clouds.5 mph56%29.98 "HgN/A
10:30 AM66 °FSunny.5 mph68%29.98 "Hg10 mi
10:00 AM66 °FSunny.2 mph64%29.98 "Hg10 mi
9:30 AM63 °FSunny.2 mph77%29.98 "Hg10 mi
9:00 AM59 °FClear.1 mph82%29.98 "Hg5 mi
8:30 AM57 °FClear.1 mph82%30.01 "Hg5 mi
8:00 AM55 °FClear.1 mph82%30.01 "Hg5 mi
7:30 AM52 °FFog.1 mph94%30.01 "Hg2 mi
7:00 AM50 °FFog.1 mph94%30.01 "Hg2 mi
6:30 AM50 °FFog.No wind88%30.01 "Hg2 mi
6:00 AM46 °FCool.1 mph93%30.01 "Hg2 mi
5:30 AM46 °FFog.No wind93%30.01 "Hg1 mi
5:00 AM46 °FSleet. Overcast.2 mph100%30.01 "Hg2 mi
4:30 AM48 °FSleet. Overcast.2 mph94%30.01 "Hg2 mi
4:00 AM50 °FFog.1 mph94%30.01 "Hg0 mi
3:30 AM50 °FFog.1 mph94%30.01 "Hg4 mi
3:00 AM50 °FFog.1 mph100%30.04 "HgN/A
2:30 AM52 °FClear.No wind94%30.04 "Hg10 mi
2:00 AM54 °FClear.1 mph94%30.04 "Hg10 mi
1:30 AM54 °FClear.1 mph94%30.04 "Hg10 mi
1:00 AM54 °FClear.1 mph94%30.04 "Hg10 mi
12:30 AM54 °FClear.No wind94%30.07 "Hg10 mi
12:00 AM55 °FClear.No wind88%30.07 "Hg10 mi
11:30 PM
Sun, May 24
55 °FClear.No wind94%30.07 "Hg10 mi
11:00 PM57 °FClear.1 mph88%30.07 "Hg10 mi
Weather by CustomWeather, © 2015

See weather overviewHow to use our weather pages